contact:dominique.lefevre@mio.osupytheas.fr, maurice.libes@osupytheas.fr, didier.mallarino@osupytheas.fr
Project:EMSO http://www.emso-fr.org/EMSO-France
Depth: 2436.0 m
Title:EMSO Ligure Ouest : Data MII capteur AQUADOPP
Date,Latitude,Longitude,X_East,Y_North,Z_Up,Amplitude_X,Amplitude_Y,Amplitude_Z,Batterie,SoundSpeed,Heading,Pitch,Roll,Pressure,TIS,Speed,Direction
, degrees North, degrees East, m.s-1, m.s-1,m.s-1, 1, 1, 1, Volt, m.s-1, degree, degree, degree, dbar, degree_C, m.s-1, degree
2019-09-24T00:09:03,42.805,6.029,-0.083,-0.005,-0.043,101.0,105.0,99.0,13.4,1505.2,327.0,-0.8,1.8,2470.196,13.29,0.083,266.6
2019-09-24T00:12:04,42.805,6.029,-0.074,0.02,-0.032,100.0,106.0,98.0,13.4,1505.3,326.0,-0.8,1.8,2470.162,13.31,0.076,285.1
2019-09-24T00:15:05,42.805,6.029,-0.028,0.016,-0.024,102.0,104.0,98.0,13.4,1505.3,323.9,-0.7,1.9,2470.156,13.32,0.032,299.7
2019-09-24T00:18:06,42.805,6.029,-0.046,0.003,-0.019,102.0,103.0,98.0,13.4,1505.3,324.7,-0.7,1.8,2470.1,13.32,0.046,273.7
2019-09-24T00:21:07,42.805,6.029,-0.028,0.025,-0.016,100.0,105.0,98.0,13.4,1505.3,325.8,-0.7,1.8,2470.13,13.32,0.037,311.8
2019-09-24T00:24:08,42.805,6.029,-0.048,0.01,-0.01,101.0,105.0,98.0,13.4,1505.3,326.5,-0.7,1.8,2470.149,13.33,0.049,281.8
2019-09-24T00:27:09,42.805,6.029,-0.076,0.011,-0.056,100.0,105.0,99.0,13.3,1505.3,323.7,-0.7,1.8,2470.132,13.33,0.076,278.2
2019-09-24T00:30:10,42.805,6.029,-0.033,0.009,-0.016,100.0,105.0,99.0,13.4,1505.3,327.9,-0.7,1.8,2470.101,13.33,0.034,285.3
2019-09-24T00:33:11,42.805,6.029,-0.035,0.008,-0.009,101.0,106.0,98.0,13.4,1505.3,325.9,-0.7,1.8,2470.111,13.33,0.035,282.9
2019-09-24T00:36:12,42.805,6.029,-0.032,-0.008,0.008,100.0,105.0,98.0,13.4,1505.3,328.4,-0.7,1.8,2470.107,13.33,0.032,256.0
2019-09-24T00:39:13,42.805,6.029,-0.03,0.01,-0.035,101.0,105.0,98.0,13.4,1505.3,328.1,-0.7,1.8,2470.113,13.33,0.031,288.4
2019-09-24T00:42:14,42.805,6.029,-0.042,0.032,-0.01,101.0,105.0,99.0,13.4,1505.3,327.5,-0.7,1.8,2470.125,13.33,0.052,307.3
2019-09-24T00:45:15,42.805,6.029,-0.031,0.004,-0.001,101.0,104.0,99.0,13.4,1505.3,328.5,-0.7,1.9,2470.098,13.33,0.031,277.3
2019-09-24T00:48:16,42.805,6.029,-0.041,0.001,-0.033,100.0,105.0,98.0,13.4,1505.3,328.6,-0.7,1.8,2470.111,13.33,0.041,271.4
2019-09-24T00:51:17,42.805,6.029,-0.002,0.015,0.023,101.0,104.0,98.0,13.4,1505.3,326.7,-0.7,1.8,2470.092,13.33,0.015,352.4
2019-09-24T00:54:18,42.805,6.029,-0.033,0.008,0.016,101.0,105.0,98.0,13.3,1505.3,325.5,-0.7,1.9,2470.101,13.33,0.033,283.6
2019-09-24T00:57:19,42.805,6.029,-0.055,0.006,-0.05,101.0,105.0,98.0,13.4,1505.3,328.4,-0.7,1.9,2470.103,13.33,0.055,276.2
2019-09-24T01:00:20,42.805,6.029,-0.067,-0.002,-0.018,101.0,105.0,100.0,13.4,1505.3,327.4,-0.7,1.8,2470.089,13.33,0.067,268.3
2019-09-24T01:03:21,42.805,6.029,-0.017,0.0,0.012,100.0,103.0,98.0,13.4,1505.3,327.8,-0.7,1.8,2470.073,13.33,0.017,270.0
2019-09-24T01:06:22,42.805,6.029,0.003,0.001,0.02,100.0,105.0,98.0,13.3,1505.3,326.7,-0.7,1.8,2470.07,13.33,0.003,71.6
2019-09-24T01:09:23,42.805,6.029,-0.045,0.0,-0.054,102.0,105.0,98.0,13.3,1505.3,326.7,-0.8,1.8,2470.122,13.33,0.045,270.0
2019-09-24T01:12:24,42.805,6.029,-0.052,0.003,-0.019,100.0,103.0,99.0,13.4,1505.3,324.4,-0.7,1.9,2470.074,13.33,0.052,273.3
2019-09-24T01:15:25,42.805,6.029,0.009,0.008,0.038,101.0,105.0,98.0,13.3,1505.3,326.3,-0.7,1.8,2470.051,13.33,0.012,48.4
2019-09-24T01:18:26,42.805,6.029,-0.063,-0.015,-0.027,102.0,103.0,98.0,13.4,1505.3,325.7,-0.7,1.8,2470.092,13.33,0.064,256.6
2019-09-24T01:21:27,42.805,6.029,-0.017,-0.009,0.012,102.0,104.0,98.0,13.4,1505.3,323.3,-0.7,1.8,2470.05,13.33,0.019,242.1
2019-09-24T01:24:28,42.805,6.029,-0.025,0.0,0.018,100.0,104.0,99.0,13.3,1505.3,326.5,-0.7,1.8,2470.122,13.33,0.025,270.0
2019-09-24T01:27:29,42.805,6.029,-0.013,-0.008,-0.007,101.0,105.0,99.0,13.4,1505.3,325.1,-0.7,1.8,2470.088,13.33,0.015,238.4
2019-09-24T01:30:30,42.805,6.029,-0.023,-0.001,-0.022,102.0,104.0,98.0,13.4,1505.3,323.8,-0.7,1.8,2470.14,13.33,0.023,267.5
2019-09-24T01:33:31,42.805,6.029,-0.002,-0.002,0.002,101.0,104.0,97.0,13.4,1505.3,323.4,-0.7,1.8,2470.105,13.33,0.002,225.0
2019-09-24T01:36:32,42.805,6.029,-0.049,0.015,-0.011,101.0,103.0,98.0,13.3,1505.3,328.6,-0.7,1.8,2470.122,13.33,0.051,287.0
2019-09-24T01:39:33,42.805,6.029,-0.018,-0.009,-0.008,102.0,104.0,97.0,13.4,1505.3,325.1,-0.7,1.9,2470.145,13.33,0.02,243.4
2019-09-24T01:42:34,42.805,6.029,-0.014,0.009,-0.011,101.0,103.0,98.0,13.4,1505.3,325.1,-0.7,1.8,2470.059,13.33,0.016,302.7
2019-09-24T01:45:35,42.805,6.029,-0.008,-0.027,0.005,102.0,103.0,98.0,13.4,1505.3,326.5,-0.7,1.8,2470.086,13.33,0.028,196.5
2019-09-24T01:48:36,42.805,6.029,0.005,0.0,0.04,101.0,103.0,100.0,13.4,1505.3,325.8,-0.7,1.9,2470.055,13.33,0.005,90.0
2019-09-24T01:51:37,42.805,6.029,-0.033,-0.005,-0.003,101.0,103.0,98.0,13.4,1505.3,324.5,-0.7,1.8,2470.1,13.33,0.033,261.4
2019-09-24T01:54:38,42.805,6.029,-0.046,0.015,-0.004,102.0,103.0,99.0,13.3,1505.3,324.6,-0.7,1.9,2470.101,13.33,0.048,288.1
2019-09-24T01:57:39,42.805,6.029,-0.04,-0.023,-0.023,101.0,104.0,98.0,13.4,1505.3,326.1,-0.7,1.8,2470.106,13.33,0.046,240.1
2019-09-24T02:00:40,42.805,6.029,-0.049,0.013,-0.021,101.0,102.0,99.0,13.4,1505.3,324.9,-0.7,1.8,2470.078,13.33,0.05,284.9
2019-09-24T02:03:41,42.805,6.029,0.02,0.011,0.06,100.0,103.0,98.0,13.3,1505.4,325.0,-0.7,1.8,2470.082,13.34,0.022,61.2
2019-09-24T02:06:42,42.805,6.029,-0.015,0.005,0.0,100.0,103.0,98.0,13.4,1505.4,326.7,-0.7,1.8,2470.117,13.34,0.015,288.4
2019-09-24T02:09:43,42.805,6.029,-0.035,0.022,-0.018,101.0,104.0,99.0,13.3,1505.3,324.2,-0.7,1.8,2470.084,13.33,0.041,302.2
2019-09-24T02:12:44,42.805,6.029,0.0,0.019,0.04,101.0,103.0,99.0,13.4,1505.3,327.7,-0.7,1.8,2470.062,13.33,0.019,0.0
2019-09-24T02:15:45,42.805,6.029,-0.056,-0.007,-0.059,101.0,104.0,98.0,13.4,1505.3,327.7,-0.7,1.8,2470.07,13.33,0.056,262.9
2019-09-24T02:18:46,42.805,6.029,-0.002,0.0,-0.005,101.0,104.0,99.0,13.3,1505.4,327.9,-0.7,1.8,2470.081,13.34,0.002,270.0
2019-09-24T02:21:47,42.805,6.029,-0.054,0.003,-0.044,102.0,103.0,98.0,13.4,1505.4,328.5,-0.7,1.8,2470.076,13.34,0.054,273.2
2019-09-24T02:24:48,42.805,6.029,0.002,0.01,0.006,101.0,104.0,99.0,13.4,1505.4,324.9,-0.7,1.8,2470.096,13.34,0.01,11.3
2019-09-24T02:27:49,42.805,6.029,-0.032,-0.014,0.021,102.0,106.0,97.0,13.4,1505.4,324.2,-0.7,1.8,2470.127,13.34,0.034,246.4
2019-09-24T02:30:50,42.805,6.029,-0.028,0.0,-0.022,102.0,103.0,99.0,13.3,1505.4,325.3,-0.8,1.8,2470.065,13.34,0.028,270.0
2019-09-24T02:33:51,42.805,6.029,-0.066,0.008,-0.03,101.0,104.0,99.0,13.4,1505.3,325.1,-0.7,1.8,2470.103,13.33,0.066,276.9
2019-09-24T02:36:52,42.805,6.029,-0.023,-0.002,0.011,102.0,104.0,98.0,13.4,1505.4,323.7,-0.7,1.8,2470.093,13.34,0.023,265.0
2019-09-24T02:39:53,42.805,6.029,-0.012,-0.01,0.027,103.0,103.0,98.0,13.3,1505.3,325.3,-0.7,1.8,2470.089,13.33,0.015,230.2
2019-09-24T02:42:54,42.805,6.029,-0.036,0.0,-0.033,102.0,103.0,98.0,13.4,1505.3,326.5,-0.7,1.9,2470.075,13.33,0.036,270.0
2019-09-24T02:45:55,42.805,6.029,0.0,0.011,0.013,101.0,104.0,100.0,13.3,1505.3,326.1,-0.7,1.8,2470.073,13.33,0.011,0.0
2019-09-24T02:48:56,42.805,6.029,-0.05,0.026,-0.012,101.0,104.0,97.0,13.4,1505.3,327.8,-0.7,1.8,2470.103,13.33,0.056,297.5
2019-09-24T02:51:57,42.805,6.029,0.0,0.001,0.014,103.0,103.0,98.0,13.4,1505.3,325.3,-0.7,1.8,2470.076,13.33,0.001,0.0
2019-09-24T02:54:58,42.805,6.029,-0.023,0.0,0.001,101.0,104.0,98.0,13.3,1505.3,325.2,-0.7,1.8,2470.101,13.33,0.023,270.0
2019-09-24T02:57:59,42.805,6.029,-0.048,0.01,-0.044,101.0,103.0,98.0,13.4,1505.3,324.8,-0.7,1.8,2470.164,13.33,0.049,281.8
2019-09-24T03:01:00,42.805,6.029,-0.04,0.004,-0.021,100.0,104.0,98.0,13.3,1505.3,324.7,-0.7,1.8,2470.09,13.33,0.04,275.7
2019-09-24T03:04:01,42.805,6.029,-0.054,0.009,0.013,99.0,103.0,98.0,13.4,1505.4,323.2,-0.7,1.8,2470.085,13.34,0.054,279.5
2019-09-24T03:07:02,42.805,6.029,-0.034,0.008,-0.011,101.0,105.0,99.0,13.4,1505.3,323.3,-0.7,1.8,2470.105,13.33,0.034,283.2
2019-09-24T03:10:03,42.805,6.029,-0.004,-0.004,0.003,103.0,103.0,98.0,13.4,1505.4,323.2,-0.7,1.8,2470.118,13.34,0.005,225.0
2019-09-24T03:13:04,42.805,6.029,-0.014,0.004,-0.008,101.0,104.0,99.0,13.4,1505.4,324.5,-0.7,1.8,2470.106,13.34,0.014,285.9
2019-09-24T03:16:05,42.805,6.029,-0.033,0.004,0.01,102.0,104.0,98.0,13.4,1505.4,326.2,-0.7,1.8,2470.078,13.34,0.033,276.9
2019-09-24T03:19:06,42.805,6.029,-0.02,-0.008,0.024,101.0,104.0,98.0,13.4,1505.4,326.3,-0.7,1.8,2470.11,13.34,0.021,248.2
2019-09-24T03:22:07,42.805,6.029,-0.02,-0.001,-0.023,101.0,104.0,98.0,13.4,1505.4,325.5,-0.7,1.8,2470.064,13.34,0.02,267.1
2019-09-24T03:25:08,42.805,6.029,-0.027,0.013,-0.002,99.0,104.0,99.0,13.3,1505.4,325.8,-0.7,1.8,2470.122,13.34,0.029,295.7
2019-09-24T03:28:09,42.805,6.029,-0.014,-0.012,-0.014,101.0,104.0,99.0,13.4,1505.4,326.6,-0.7,1.8,2470.157,13.34,0.018,229.4
2019-09-24T03:31:10,42.805,6.029,-0.028,-0.001,-0.029,101.0,103.0,99.0,13.3,1505.3,325.6,-0.7,1.8,2470.122,13.33,0.028,268.0
2019-09-24T03:34:11,42.805,6.029,0.009,-0.004,-0.004,100.0,101.0,98.0,13.4,1505.4,325.6,-0.7,1.8,2470.106,13.34,0.009,114.0
2019-09-24T03:37:12,42.805,6.029,-0.009,-0.001,0.0,101.0,102.0,98.0,13.4,1505.3,325.8,-0.7,1.8,2470.088,13.33,0.009,263.7
2019-09-24T03:40:13,42.805,6.029,-0.028,-0.02,-0.031,100.0,104.0,98.0,13.4,1505.4,326.1,-0.7,1.9,2470.109,13.34,0.034,234.5
2019-09-24T03:43:14,42.805,6.029,-0.023,-0.01,-0.015,101.0,104.0,97.0,13.4,1505.3,325.0,-0.7,1.8,2470.107,13.33,0.025,246.5
2019-09-24T03:46:15,42.805,6.029,-0.053,0.0,-0.045,100.0,103.0,99.0,13.3,1505.3,325.4,-0.7,1.8,2470.114,13.33,0.053,270.0
2019-09-24T03:49:16,42.805,6.029,-0.065,0.017,-0.013,99.0,103.0,99.0,13.4,1505.3,324.5,-0.7,1.8,2470.091,13.33,0.067,284.7
2019-09-24T03:52:17,42.805,6.029,-0.016,0.0,-0.024,101.0,103.0,98.0,13.4,1505.3,326.4,-0.7,1.8,2470.077,13.33,0.016,270.0
2019-09-24T03:55:18,42.805,6.029,-0.047,0.015,0.006,100.0,104.0,99.0,13.4,1505.3,326.4,-0.7,1.8,2470.077,13.33,0.049,287.7
2019-09-24T03:58:19,42.805,6.029,-0.041,0.002,-0.024,99.0,104.0,98.0,13.3,1505.3,326.7,-0.7,1.9,2470.089,13.33,0.041,272.8
2019-09-24T04:01:20,42.805,6.029,-0.028,0.018,-0.015,100.0,103.0,98.0,13.3,1505.3,326.9,-0.7,1.8,2470.077,13.33,0.033,302.7
2019-09-24T04:04:21,42.805,6.029,-0.025,-0.002,-0.011,101.0,102.0,98.0,13.4,1505.3,323.4,-0.7,1.8,2470.089,13.33,0.025,265.4
2019-09-24T04:07:22,42.805,6.029,-0.043,-0.019,-0.01,100.0,103.0,97.0,13.4,1505.3,326.7,-0.7,1.9,2470.108,13.33,0.047,246.2
2019-09-24T04:10:23,42.805,6.029,-0.032,0.0,-0.011,101.0,103.0,98.0,13.3,1505.3,326.9,-0.7,1.8,2470.146,13.33,0.032,270.0
2019-09-24T04:13:24,42.805,6.029,-0.01,-0.001,0.0,101.0,103.0,98.0,13.4,1505.3,328.3,-0.7,1.8,2470.096,13.33,0.01,264.3
2019-09-24T04:16:25,42.805,6.029,-0.052,0.013,-0.006,99.0,102.0,98.0,13.4,1505.3,327.8,-0.7,1.8,2470.09,13.33,0.053,284.0
2019-09-24T04:19:26,42.805,6.029,-0.04,0.022,0.011,100.0,102.0,97.0,13.3,1505.3,328.1,-0.7,1.8,2470.097,13.33,0.045,298.8
2019-09-24T04:22:27,42.805,6.029,-0.003,-0.013,0.015,99.0,103.0,98.0,13.4,1505.3,328.6,-0.7,1.9,2470.093,13.33,0.013,193.0
2019-09-24T04:25:28,42.805,6.029,-0.039,-0.003,-0.014,100.0,104.0,97.0,13.4,1505.3,325.0,-0.7,1.8,2470.104,13.33,0.039,265.6
2019-09-24T04:28:29,42.805,6.029,-0.044,-0.01,0.003,100.0,103.0,98.0,13.4,1505.3,324.1,-0.7,1.8,2470.101,13.33,0.045,257.2
2019-09-24T04:31:30,42.805,6.029,-0.025,0.012,0.021,100.0,103.0,99.0,13.4,1505.3,325.3,-0.7,1.8,2470.094,13.33,0.027,295.6
2019-09-24T04:34:31,42.805,6.029,-0.032,0.002,-0.031,100.0,102.0,98.0,13.3,1505.4,325.7,-0.7,1.8,2470.089,13.34,0.032,273.6
2019-09-24T04:37:32,42.805,6.029,-0.033,0.003,-0.005,100.0,103.0,98.0,13.4,1505.4,324.5,-0.7,1.8,2470.079,13.34,0.033,275.2
2019-09-24T04:40:33,42.805,6.029,-0.015,0.024,0.013,100.0,103.0,97.0,13.4,1505.4,325.8,-0.7,1.9,2470.084,13.34,0.028,328.0
2019-09-24T04:43:34,42.805,6.029,-0.015,-0.015,-0.001,99.0,102.0,101.0,13.3,1505.3,325.0,-0.7,1.8,2470.081,13.33,0.021,225.0
2019-09-24T04:46:35,42.805,6.029,-0.037,0.008,-0.01,101.0,103.0,98.0,13.3,1505.3,325.8,-0.7,1.9,2470.066,13.33,0.037,282.2
2019-09-24T04:49:36,42.805,6.029,-0.061,0.001,-0.035,98.0,103.0,99.0,13.4,1505.3,325.5,-0.7,1.8,2470.06,13.33,0.061,270.9
2019-09-24T04:52:37,42.805,6.029,-0.044,-0.016,-0.031,99.0,103.0,98.0,13.3,1505.3,324.7,-0.7,1.8,2470.091,13.33,0.046,250.0
2019-09-24T04:55:38,42.805,6.029,-0.062,0.01,-0.033,100.0,103.0,98.0,13.4,1505.3,325.1,-0.7,1.8,2470.05,13.33,0.062,279.2
2019-09-24T04:58:39,42.805,6.029,-0.023,0.001,0.01,100.0,101.0,98.0,13.4,1505.4,326.2,-0.8,1.8,2470.065,13.34,0.023,272.5
2019-09-24T05:01:40,42.805,6.029,-0.034,-0.01,-0.06,99.0,103.0,97.0,13.3,1505.3,325.1,-0.7,1.8,2470.117,13.33,0.035,253.6
2019-09-24T05:04:41,42.805,6.029,-0.014,0.015,0.0,100.0,103.0,98.0,13.3,1505.3,325.4,-0.7,1.8,2470.052,13.33,0.02,317.0
2019-09-24T05:07:42,42.805,6.029,-0.013,-0.008,0.008,99.0,102.0,98.0,13.4,1505.3,326.2,-0.7,1.8,2470.054,13.33,0.015,238.4
2019-09-24T05:10:43,42.805,6.029,-0.033,0.002,-0.006,101.0,101.0,97.0,13.4,1505.3,326.5,-0.7,1.8,2470.08,13.33,0.033,273.5
2019-09-24T05:13:44,42.805,6.029,-0.024,-0.008,0.003,101.0,102.0,98.0,13.4,1505.3,325.2,-0.7,1.8,2470.068,13.33,0.025,251.6
2019-09-24T05:16:45,42.805,6.029,-0.044,0.002,-0.015,100.0,103.0,99.0,13.4,1505.3,326.5,-0.7,1.8,2470.081,13.33,0.044,272.6
2019-09-24T05:19:46,42.805,6.029,-0.038,0.0,-0.013,101.0,104.0,98.0,13.4,1505.3,326.8,-0.7,1.8,2470.069,13.33,0.038,270.0
2019-09-24T05:22:47,42.805,6.029,0.016,0.013,0.039,99.0,102.0,100.0,13.4,1505.3,326.5,-0.7,1.9,2470.081,13.33,0.02,50.9
2019-09-24T05:25:48,42.805,6.029,-0.052,0.02,-0.007,101.0,101.0,98.0,13.4,1505.3,326.9,-0.7,1.9,2470.045,13.33,0.055,291.0
2019-09-24T05:28:49,42.805,6.029,0.003,0.007,-0.003,100.0,103.0,102.0,13.4,1505.3,326.5,-0.7,1.9,2470.069,13.33,0.007,23.2
2019-09-24T05:31:50,42.805,6.029,-0.007,0.005,0.007,102.0,101.0,96.0,13.4,1505.3,326.7,-0.7,1.8,2470.055,13.33,0.008,305.5
2019-09-24T05:34:52,42.805,6.029,-0.013,0.005,-0.019,101.0,103.0,98.0,13.3,1505.3,326.9,-0.7,1.8,2470.105,13.33,0.013,291.0
2019-09-24T05:37:52,42.805,6.029,-0.033,0.012,0.001,101.0,102.0,97.0,13.3,1505.3,326.6,-0.7,1.8,2470.075,13.33,0.035,290.0
2019-09-24T05:40:53,42.805,6.029,-0.036,-0.01,0.023,100.0,102.0,99.0,13.4,1505.3,326.7,-0.7,1.8,2470.074,13.33,0.037,254.5
2019-09-24T05:43:54,42.805,6.029,0.026,0.005,0.06,100.0,103.0,98.0,13.3,1505.3,324.6,-0.7,1.8,2470.085,13.33,0.026,79.1
2019-09-24T05:46:55,42.805,6.029,-0.01,0.018,0.018,101.0,103.0,97.0,13.4,1505.3,323.5,-0.7,1.8,2470.063,13.33,0.02,330.9
2019-09-24T05:49:56,42.805,6.029,-0.016,0.003,0.031,101.0,104.0,96.0,13.3,1505.3,322.8,-0.7,1.8,2470.054,13.33,0.016,280.6
2019-09-24T05:52:58,42.805,6.029,-0.033,0.001,-0.025,101.0,101.0,98.0,13.4,1505.3,323.9,-0.7,1.8,2469.991,13.33,0.033,271.7
2019-09-24T05:55:58,42.805,6.029,-0.03,-0.001,-0.039,101.0,104.0,98.0,13.4,1505.3,324.6,-0.7,1.8,2470.074,13.33,0.03,268.1
2019-09-24T05:58:59,42.805,6.029,0.012,-0.008,0.022,99.0,104.0,98.0,13.4,1505.3,324.2,-0.7,1.8,2470.08,13.33,0.014,123.7
2019-09-24T06:02:00,42.805,6.029,-0.041,0.002,-0.009,101.0,103.0,98.0,13.4,1505.3,326.5,-0.7,1.9,2470.107,13.33,0.041,272.8
2019-09-24T06:05:01,42.805,6.029,-0.003,0.017,0.057,100.0,102.0,98.0,13.4,1505.3,327.0,-0.7,1.8,2470.073,13.33,0.017,350.0
2019-09-24T06:08:02,42.805,6.029,0.001,0.023,0.023,101.0,101.0,98.0,13.4,1505.3,325.3,-0.7,1.8,2470.036,13.33,0.023,2.5
2019-09-24T06:11:03,42.805,6.029,-0.013,0.01,-0.003,100.0,103.0,98.0,13.4,1505.3,325.8,-0.7,1.8,2470.071,13.33,0.016,307.6
2019-09-24T06:14:04,42.805,6.029,-0.042,0.009,0.008,101.0,103.0,98.0,13.3,1505.3,327.8,-0.7,1.8,2470.048,13.33,0.042,282.1
2019-09-24T06:17:05,42.805,6.029,-0.033,0.008,-0.007,101.0,103.0,97.0,13.3,1505.3,328.2,-0.7,1.9,2470.043,13.33,0.033,283.6
2019-09-24T06:20:06,42.805,6.029,-0.017,0.001,0.024,99.0,103.0,99.0,13.3,1505.3,326.9,-0.7,1.8,2470.052,13.33,0.017,273.4
2019-09-24T06:23:07,42.805,6.029,-0.046,0.008,0.0,100.0,103.0,98.0,13.3,1505.3,327.8,-0.7,1.8,2470.07,13.33,0.046,279.9
2019-09-24T06:26:08,42.805,6.029,-0.004,-0.005,-0.003,99.0,103.0,98.0,13.4,1505.3,325.9,-0.7,1.8,2470.091,13.33,0.006,218.7
2019-09-24T06:29:09,42.805,6.029,-0.02,0.007,0.008,100.0,102.0,99.0,13.4,1505.3,325.0,-0.7,1.8,2470.035,13.33,0.021,289.3
2019-09-24T06:32:10,42.805,6.029,-0.036,0.006,-0.005,100.0,101.0,97.0,13.4,1505.3,323.0,-0.7,1.8,2470.039,13.33,0.036,279.5
2019-09-24T06:35:11,42.805,6.029,-0.032,-0.002,-0.008,101.0,103.0,97.0,13.3,1505.3,326.3,-0.7,1.8,2470.061,13.33,0.032,266.4
2019-09-24T06:38:12,42.805,6.029,-0.028,0.02,-0.024,101.0,103.0,97.0,13.4,1505.3,323.8,-0.7,1.9,2470.06,13.33,0.034,305.5
2019-09-24T06:41:13,42.805,6.029,-0.006,-0.01,-0.01,100.0,103.0,97.0,13.4,1505.3,323.7,-0.7,1.8,2470.045,13.33,0.011,211.0
2019-09-24T06:44:14,42.805,6.029,0.016,0.006,0.025,100.0,103.0,97.0,13.4,1505.3,326.8,-0.7,1.8,2470.062,13.33,0.017,69.4
2019-09-24T06:47:15,42.805,6.029,-0.034,0.009,-0.025,100.0,102.0,98.0,13.3,1505.3,324.9,-0.7,1.8,2470.058,13.33,0.035,284.8
2019-09-24T06:50:16,42.805,6.029,-0.016,-0.001,-0.019,100.0,102.0,98.0,13.4,1505.3,325.6,-0.7,1.8,2469.991,13.33,0.016,266.4
2019-09-24T06:53:17,42.805,6.029,-0.05,0.014,-0.015,99.0,102.0,98.0,13.4,1505.3,325.8,-0.7,1.9,2470.039,13.33,0.051,285.6
2019-09-24T06:56:18,42.805,6.029,-0.043,0.01,-0.003,99.0,103.0,98.0,13.4,1505.3,327.0,-0.8,1.8,2470.068,13.33,0.044,283.1
2019-09-24T06:59:19,42.805,6.029,-0.006,-0.002,0.008,100.0,101.0,98.0,13.4,1505.3,326.6,-0.7,1.9,2470.055,13.33,0.006,251.6
2019-09-24T07:02:20,42.805,6.029,-0.043,0.015,0.002,100.0,102.0,98.0,13.4,1505.3,325.3,-0.7,1.8,2470.001,13.33,0.045,289.2
2019-09-24T07:05:21,42.805,6.029,-0.011,0.021,-0.011,100.0,104.0,97.0,13.3,1505.3,325.3,-0.7,1.8,2470.036,13.33,0.023,332.4
2019-09-24T07:08:22,42.805,6.029,-0.047,-0.011,0.004,99.0,103.0,98.0,13.4,1505.3,323.5,-0.7,1.8,2470.03,13.33,0.048,256.8
2019-09-24T07:11:23,42.805,6.029,-0.052,0.012,-0.022,100.0,103.0,97.0,13.4,1505.3,323.3,-0.7,1.9,2470.03,13.33,0.053,283.0
2019-09-24T07:14:24,42.805,6.029,-0.024,-0.005,0.001,99.0,104.0,98.0,13.4,1505.3,326.1,-0.7,1.8,2470.039,13.33,0.024,258.2
2019-09-24T07:17:25,42.805,6.029,-0.056,-0.013,-0.062,100.0,102.0,97.0,13.4,1505.3,327.1,-0.7,1.8,2470.04,13.33,0.057,256.9
2019-09-24T07:20:26,42.805,6.029,-0.029,0.013,-0.021,99.0,102.0,97.0,13.4,1505.4,323.8,-0.7,1.9,2470.007,13.34,0.031,294.1
2019-09-24T07:23:27,42.805,6.029,-0.07,0.009,0.015,100.0,102.0,98.0,13.4,1505.3,326.7,-0.7,1.8,2470.034,13.33,0.07,277.3
2019-09-24T07:26:28,42.805,6.029,-0.02,0.0,0.021,100.0,103.0,97.0,13.3,1505.3,325.5,-0.7,1.8,2470.033,13.33,0.02,270.0
2019-09-24T07:29:29,42.805,6.029,0.021,-0.018,-0.014,100.0,101.0,97.0,13.4,1505.3,324.6,-0.7,1.8,2470.045,13.33,0.027,130.6
2019-09-24T07:32:30,42.805,6.029,-0.01,-0.009,-0.006,100.0,101.0,98.0,13.3,1505.3,322.9,-0.8,1.8,2470.022,13.33,0.013,228.0
2019-09-24T07:35:31,42.805,6.029,-0.03,0.002,-0.021,100.0,102.0,98.0,13.4,1505.3,326.9,-0.7,1.8,2470.071,13.33,0.03,273.8
2019-09-24T07:38:32,42.805,6.029,-0.008,-0.008,0.001,99.0,102.0,98.0,13.4,1505.3,327.1,-0.7,1.8,2470.03,13.33,0.011,225.0
2019-09-24T07:41:33,42.805,6.029,-0.069,-0.024,-0.068,100.0,102.0,98.0,13.4,1505.3,324.0,-0.7,1.8,2470.014,13.33,0.073,250.8
2019-09-24T07:44:34,42.805,6.029,-0.043,-0.003,-0.035,100.0,103.0,97.0,13.4,1505.3,325.3,-0.7,1.8,2470.002,13.33,0.043,266.0
2019-09-24T07:47:35,42.805,6.029,-0.02,-0.008,-0.007,101.0,102.0,98.0,13.4,1505.3,326.0,-0.7,1.9,2470.009,13.33,0.021,248.2
2019-09-24T07:50:36,42.805,6.029,-0.026,-0.006,-0.041,99.0,101.0,97.0,13.3,1505.3,324.5,-0.7,1.8,2470.008,13.33,0.026,257.0
2019-09-24T07:53:37,42.805,6.029,-0.019,-0.004,-0.022,100.0,101.0,98.0,13.4,1505.3,326.2,-0.8,1.8,2470.018,13.33,0.019,258.1
2019-09-24T07:56:38,42.805,6.029,0.003,0.002,-0.002,100.0,103.0,97.0,13.4,1505.3,324.6,-0.7,1.8,2470.062,13.33,0.003,56.3
2019-09-24T07:59:39,42.805,6.029,-0.041,0.0,-0.032,100.0,102.0,98.0,13.4,1505.3,325.5,-0.7,1.8,2469.985,13.33,0.041,270.0
2019-09-24T08:02:40,42.805,6.029,0.004,-0.002,0.003,99.0,102.0,98.0,13.3,1505.3,324.4,-0.7,1.8,2470.057,13.33,0.004,116.6
2019-09-24T08:05:41,42.805,6.029,0.017,0.001,0.0,99.0,103.0,97.0,13.3,1505.4,323.6,-0.7,1.8,2470.031,13.34,0.017,86.6
2019-09-24T08:08:42,42.805,6.029,-0.027,0.013,-0.005,99.0,101.0,98.0,13.4,1505.3,326.7,-0.7,1.8,2469.989,13.33,0.029,295.7
2019-09-24T08:11:43,42.805,6.029,-0.035,0.001,-0.012,99.0,102.0,97.0,13.4,1505.4,323.8,-0.7,1.8,2470.029,13.34,0.035,271.6
2019-09-24T08:14:44,42.805,6.029,-0.029,0.008,0.019,102.0,101.0,98.0,13.4,1505.3,325.4,-0.7,1.8,2470.003,13.33,0.03,285.4
2019-09-24T08:17:45,42.805,6.029,-0.025,0.018,-0.04,100.0,102.0,98.0,13.3,1505.3,326.6,-0.7,1.8,2470.01,13.33,0.03,305.8
2019-09-24T08:20:46,42.805,6.029,-0.056,-0.01,-0.061,100.0,103.0,98.0,13.3,1505.3,323.5,-0.7,1.8,2470.028,13.33,0.056,259.9
2019-09-24T08:23:47,42.805,6.029,-0.025,0.009,-0.009,100.0,103.0,99.0,13.3,1505.3,323.5,-0.7,1.8,2469.967,13.33,0.026,289.8
2019-09-24T08:26:48,42.805,6.029,-0.005,-0.018,0.018,99.0,103.0,98.0,13.4,1505.3,323.6,-0.7,1.9,2470.0,13.33,0.018,195.5
2019-09-24T08:29:49,42.805,6.029,-0.031,0.012,-0.056,100.0,101.0,98.0,13.4,1505.3,325.1,-0.7,1.9,2469.972,13.33,0.033,291.2
2019-09-24T08:32:50,42.805,6.029,-0.038,0.017,-0.011,100.0,102.0,99.0,13.3,1505.3,325.7,-0.7,1.8,2469.986,13.33,0.041,294.1
2019-09-24T08:35:51,42.805,6.029,-0.072,-0.008,-0.042,102.0,103.0,97.0,13.4,1505.3,325.4,-0.7,1.9,2469.977,13.33,0.072,263.7
2019-09-24T08:38:52,42.805,6.029,-0.029,0.01,0.003,100.0,103.0,97.0,13.3,1505.3,327.9,-0.7,1.8,2470.014,13.33,0.03,289.0
2019-09-24T08:41:53,42.805,6.029,-0.066,0.004,-0.074,100.0,103.0,98.0,13.3,1505.3,328.1,-0.7,1.8,2469.992,13.33,0.066,273.5
2019-09-24T08:44:54,42.805,6.029,-0.006,0.017,0.03,101.0,103.0,97.0,13.3,1505.4,324.9,-0.7,1.9,2469.984,13.34,0.018,340.6
2019-09-24T08:47:55,42.805,6.029,-0.055,-0.011,-0.027,101.0,103.0,98.0,13.4,1505.3,326.3,-0.7,1.9,2470.002,13.33,0.056,258.7
2019-09-24T08:50:56,42.805,6.029,0.001,0.007,0.005,100.0,104.0,98.0,13.4,1505.4,325.3,-0.7,1.8,2470.001,13.34,0.007,8.1
2019-09-24T08:53:57,42.805,6.029,-0.022,-0.014,-0.039,100.0,103.0,97.0,13.3,1505.3,323.8,-0.7,1.9,2469.99,13.33,0.026,237.5
2019-09-24T08:56:58,42.805,6.029,-0.059,0.0,-0.045,101.0,104.0,96.0,13.3,1505.3,325.1,-0.7,1.8,2470.008,13.33,0.058,270.0
2019-09-24T08:59:59,42.805,6.029,-0.011,0.014,-0.008,99.0,104.0,97.0,13.4,1505.3,328.6,-0.7,1.8,2469.986,13.33,0.017,321.8
2019-09-24T09:03:00,42.805,6.029,-0.059,0.001,-0.02,99.0,102.0,98.0,13.4,1505.3,325.9,-0.7,1.9,2469.997,13.33,0.059,271.0
2019-09-24T09:06:01,42.805,6.029,-0.023,0.011,0.008,100.0,104.0,97.0,13.4,1505.3,325.2,-0.7,1.8,2470.03,13.33,0.025,295.6
2019-09-24T09:09:02,42.805,6.029,-0.036,0.003,-0.006,101.0,103.0,98.0,13.4,1505.3,326.7,-0.7,1.8,2469.984,13.33,0.036,274.8
2019-09-24T09:12:03,42.805,6.029,-0.041,0.017,-0.054,99.0,103.0,98.0,13.4,1505.3,327.4,-0.7,1.8,2470.018,13.33,0.044,292.5
2019-09-24T09:15:04,42.805,6.029,-0.046,0.011,-0.016,100.0,105.0,99.0,13.4,1505.3,326.4,-0.7,1.8,2469.992,13.33,0.047,283.4
2019-09-24T09:18:05,42.805,6.029,-0.023,0.017,-0.004,100.0,104.0,98.0,13.4,1505.3,324.1,-0.7,1.8,2469.989,13.33,0.028,306.5
2019-09-24T09:21:06,42.805,6.029,-0.068,-0.01,-0.025,100.0,105.0,97.0,13.4,1505.3,324.6,-0.7,1.8,2470.018,13.33,0.068,261.6
2019-09-24T09:24:07,42.805,6.029,-0.055,-0.015,-0.014,102.0,104.0,96.0,13.3,1505.3,325.5,-0.7,1.8,2470.037,13.33,0.057,254.7
2019-09-24T09:27:08,42.805,6.029,-0.016,-0.013,-0.002,100.0,103.0,98.0,13.4,1505.3,326.4,-0.7,1.8,2469.995,13.33,0.02,230.9
2019-09-24T09:30:09,42.805,6.029,-0.03,-0.017,-0.031,101.0,104.0,98.0,13.3,1505.3,326.1,-0.7,1.8,2470.031,13.33,0.034,240.5
2019-09-24T09:33:10,42.805,6.029,-0.062,0.004,-0.049,100.0,102.0,99.0,13.4,1505.3,326.9,-0.7,1.8,2470.029,13.33,0.062,273.7
2019-09-24T09:36:11,42.805,6.029,-0.04,-0.025,0.022,103.0,104.0,98.0,13.3,1505.3,325.6,-0.7,1.8,2470.014,13.33,0.047,238.0
2019-09-24T09:39:12,42.805,6.029,-0.029,-0.021,-0.03,100.0,104.0,97.0,13.4,1505.3,327.1,-0.8,1.9,2470.016,13.33,0.035,234.1
2019-09-24T09:42:13,42.805,6.029,-0.067,0.001,-0.045,101.0,104.0,98.0,13.4,1505.3,326.3,-0.7,1.9,2470.054,13.33,0.067,270.9